星链-30460 (STARLINK-30460 )

导读

STARLINK-30460是美国太空探索技术公司星链计划的卫星,星链计划旨在构建全球卫星互联网星座。该星于2023年9月16日8点发射,加入近地轨道卫星网络,为全球偏远地区等提供互联网接入服务,推进星链系统的全球覆盖进程。目前已在轨运行近两年,持续服务天地网络通信。

Basic Information
目录编号:
57870
目录名称:
STARLINK-30460
国际标识:
2023-144G
轨道中心:
EARTH
卫星名称:
星链-30460
卫星全名:
星链-30460 (STARLINK-30460 )
卫星状态:
在轨 (已飞行1084 天)
发射日期:
2023-09-16 UTC
国别 :
美国 (US)
星等 :
--
Orbit Information
数据来源 国际轨道数据
星历时间: 2026-09-04T01:09:27+0800
23小时前
查看轨道信息
半长轴: 6861.184km
偏心率: 0.0001445
轨道倾角: 43.005°
近地点辐角 264.637°
升交点赤经 359.847°
平近点角 95.432°
近地点: 482.055km
远地点: 484.039km
周期: 94.267分钟
每日圈数: 15.27581
Detailed Information
固有亮度:
5
最大亮度:
0.3
卫星平台:
Starlink v2.0 mini
覆盖范围:
全球
运营商:
太空探索技术公司
运营商所在国:
美国
制造商(研发单位):
太空探索技术公司
制造商所在国:
美国
使用方式:
暂无
Satellite Introduction
星链(Starlink)计划是由太空探索技术公司(SpaceX)提出的一个巨型低轨卫星互联网星座项目,计划在2019年至2024年间在太空搭建由约1.2万颗卫星组成的“星链”网络,其中1584颗将部署在地球上空550千米处的近地轨道,并从2020年开始工作。该卫星仍在工作。
2D Orbit Map
3D Orbit Map
Orbit Altitude Analysis Chart
Orbit Inclination Analysis Chart
Orbit Comprehensive Analysis Chart
View Comprehensive Chart
Conjunction Data List
Event ID Objects TCA Miss Dist (km) Collision Risk Probability Collision Risk Index (CRI) Action
CDM_260903-142305-787006-124123
OBJECT D (61241)
2026-09-03T
14:23:39+0000
1.299 km
极远距离
9.431434E-6 低风险 0.54
CDM_260905-194205-787006-309621
2026-09-05T
19:42:38+0000
2.572 km
极远距离
1.266215E-6 低风险 0.37
CDM_260905-070805-305605-787021
2026-09-05T
07:08:14+0000
2.733 km
极远距离
1.224494E-6 低风险 0.37